Location: Unspecified
(0.0000°N, 0.0000°E)
Time: 01:25:08
(UTC+00:00)

Vanguard 1 - Pass Details

Date: 23 November 2019
Orbit: 652 x 3832 km, 34.3° (Epoch: 10 December)

Event Time Altitude Azimuth Distance (km) Brightness Sun altitude
Rises 06:16:53 0° 240° (WSW) 7,971 14.3 7.2°
Reaches altitude 10° 06:22:33 10° 243° (WSW) 6,913 14.0 8.5°
Maximum altitude 06:44:40 62° 319° (NW) 3,251 12.6 13.7°
Drops below altitude 10° 06:58:16 10° 39° (NE) 4,489 13.7 16.8°
Sets 07:01:07 0° 43° (NE) 5,149 14.0 17.5°
